FW5819 Weather Reports


Display with metric or nautical units.
time (UTC)temp
F
wind
direction
speed
MPH
gust
MPH
rain 1hr
in
rain 24hr
in
rain mn
in
humidity
%
barometer
mb
20260901103047 77 229 2.0 7.0 0.00 0.00 0.00 82 1016.0
20260901101557 78 248 1.0 7.0 0.00 0.00 0.00 82 1015.8
20260901100044 78 224 1.0 8.0 0.00 0.00 0.00 82 1015.8
20260901094542 78 111 1.0 8.0 0.00 0.00 0.00 83 1015.8
20260901093046 77 254 2.0 8.0 0.00 0.00 0.00 83 1015.9
20260901091944 77 232 1.0 7.0 0.00 0.00 0.00 83 1015.8
20260901090043 77 0 1.0 8.0 0.00 0.00 0.00 84 1015.7
20260901084537 77 193 1.0 7.0 0.00 0.00 0.00 83 1015.8
20260901083046 77 217 0.0 8.0 0.00 0.00 0.00 83 1015.7
20260901081548 77 226 2.0 5.0 0.00 0.00 0.00 84 1015.7
20260901080051 77 150 1.0 6.0 0.00 0.00 0.00 84 1015.8
20260901074548 76 223 0.0 4.0 0.00 0.00 0.00 85 1015.9
20260901073045 76 0 0.0 4.0 0.00 0.00 0.00 85 1015.9
20260901071540 75 186 0.0 4.0 0.00 0.00 0.00 86 1015.9
20260901070041 75 186 0.0 3.0 0.00 0.00 0.00 86 1015.9
20260901064540 75 181 0.0 4.0 0.00 0.00 0.00 86 1015.9
20260901063040 75 0 0.0 2.0 0.00 0.00 0.00 86 1016.0
20260901061541 75 0 0.0 5.0 0.00 0.00 0.00 86 1016.1
20260901060047 75 150 1.0 3.0 0.00 0.00 0.00 86 1016.2
20260901054543 75 159 0.0 3.0 0.00 0.00 0.00 86 1016.1
20260901053100 75 0 0.0 2.0 0.00 0.00 0.00 87 1016.3
20260901051603 75 0 0.0 4.0 0.00 0.00 0.00 87 1016.4
20260901050043 74 0 0.0 3.0 0.00 0.00 0.00 87 1016.4
20260901044538 74 0 0.0 3.0 0.00 0.00 0.00 88 1016.2
20260901043042 74 0 0.0 2.0 0.00 0.00 0.00 88 1016.4
20260901041601 74 154 0.0 2.0 0.00 0.00 0.00 88 1016.5
20260901040045 74 221 0.0 1.0 0.00 0.00 0.00 88 1016.4
20260901034539 74 0 0.0 4.0 0.00 0.00 0.00 89 1016.4
20260901033042 73 117 0.0 3.0 0.00 0.00 0.00 89 1016.4
20260901031555 73 0 0.0 1.0 0.00 0.00 0.00 88 1016.5
20260901030043 73 0 0.0 1.0 0.00 0.00 0.00 88 1016.5
20260901024542 74 0 0.0 0.0 0.00 0.00 0.00 87 1016.2
20260901023041 74 0 0.0 1.0 0.00 0.00 0.00 87 1016.3
20260901021542 74 0 0.0 1.0 0.00 0.00 0.00 86 1016.0
20260901020040 74 190 0.0 1.0 0.00 0.00 0.00 86 1016.2
20260901014546 74 0 0.0 1.0 0.00 0.00 0.00 84 1016.5
20260901013049 75 65 0.0 1.0 0.00 0.00 0.00 83 1016.6
20260901011543 75 0 0.0 1.0 0.00 0.00 0.00 82 1016.6
20260901010049 76 0 0.0 2.0 0.00 0.00 0.00 81 1016.1
20260901004547 76 0 0.0 3.0 0.00 0.00 0.00 81 1015.7
20260901003040 76 180 1.0 5.0 0.00 0.00 0.00 82 1015.8
20260901001554 76 145 1.0 5.0 0.00 0.00 0.00 82 1016.0
20260901000041 77 0 1.0 3.0 0.00 0.00 0.00 81 1016.7
20260831234555 78 201 0.0 6.0 0.00 0.00 0.00 79 1017.1
20260831233048 79 299 2.0 5.0 0.00 0.00 0.00 79 1017.5
20260831231544 80 291 1.0 6.0 0.00 0.00 0.00 78 1017.5
20260831230044 81 266 2.0 6.0 0.00 0.00 0.00 78 1017.5
20260831224541 82 211 0.0 2.0 0.00 0.00 0.00 78 1017.9
20260831223044 84 0 0.0 1.0 0.00 0.00 0.00 77 1017.9
20260831140048 77 220 1.0 4.0 0.00 0.01 0.00 83 1018.7
20260831134545 76 0 1.0 6.0 0.00 0.01 0.00 84 1018.7
20260831133046 75 238 1.0 4.0 0.00 0.01 0.00 86 1018.6
20260831131539 74 225 0.0 4.0 0.00 0.01 0.00 87 1018.8
20260831130049 73 146 1.0 3.0 0.00 0.01 0.00 88 1018.8
20260831124544 72 121 0.0 2.0 0.00 0.01 0.00 89 1018.7
20260831123041 72 0 0.0 0.0 0.00 0.01 0.00 89 1018.6
20260831121545 72 151 0.0 1.0 0.00 0.01 0.00 89 1018.6
20260831120043 72 0 0.0 1.0 0.00 0.01 0.00 89 1018.6
20260831114548 72 0 0.0 1.0 0.00 0.01 0.00 88 1018.6
20260831113039 72 0 0.0 1.0 0.00 0.01 0.00 88 1018.5
20260831111550 72 0 0.0 4.0 0.00 0.01 0.00 88 1018.3
20260831110055 71 196 0.0 3.0 0.00 0.01 0.00 88 1018.4
20260831104541 71 0 0.0 3.0 0.00 0.01 0.00 88 1018.3